SCP
-0 -0 -0 -0 -0 -0 0 0 0 0 0 0 0 0 0 0 0 0 0 0 0 0 0 0 0 0 0 0 0 0 0 0 0 0 0 0 0 0 0 0 0 0 0 0
-0 -0 -0 -0 -0 -0 -0 -0 0 0 0 0 0 0 0 0 0 0 0 0 0 0 0 0 0 0 0 0 0 0 0 0 0 0 0 0 0 0 0 0 0 0 0 0
-0 0 -0 0 0 0 0 0 0 -0 0 0 0 0 0 0 0 0 0 0 0 0 0 0 0 0 0 0 0 0 0 0 0 0 0 0 0 0 0 0 0 0 0 0
-0 0 -0 -0 0 -0 0 0 -0 0 0 0 0 -0 0 0 0 0 0 0 0 0 0 0 0 0 0 0 0 0 0 0 0 0 0 0 0 0 0 0 0 0 0 0
0 0 -0 -0 0 -0 -0 -0 -0 -0 -0 -0 -0 -0 0 -0 -0 0 0 0 0 0 0 0 0 0 0 0 0 0 0 0 0 0 0 0 0 0 0 0 0 0 0 0
0 0 0 -0 -0 -0 -0 -0 -0 -0 -0 -0 -0 0 0 -0 -0 -0 0 0 0 0 0 0 0 0 0 0 0 0 0 0 0 0 0 0 0 0 0 0 0 0 0 0
0 0 0 0 -0 -0 0 -0 0 0 0 0 0 -0 0 0 0 -0 0 0 0 0 0 0 0 0 0 0 0 0 0 0 0 0 0 0 0 0 0 0 0 0 0 0
0 0 0 0 0 0 -0 -0 -0 -0 -0 -0 -0 -0 -0 -0 0 0 0 0 0 0 0 0 0 0 0 0 0 0 0 0 0 0 0 0 0 0 0 0 0 0 0 0
-0 -0 0 -0 -0 -0 -0 -0 -0 -0 0 -0 -0 0 0 0 0 0 0 0 0 0 0 0 0 0 0 0 0 0 0 0 0 0 0 0 0 0 0 0 0 0 0 0
-0 -0 0 0 -0 -0 -0 -0 -0 0 -0 -0 -0 0 -0 0 0 0 0 0 0 0 0 0 0 0 0 0 0 0 0 0 0 0 0 0 0 0 0 0 0 0 0 0
0 0 0 0 0 -0 -0 -0 -0 -0 -0 -0 -0 -0 -0 0 0 0 0 0 0 0 0 0 0 0 0 0 0 0 0 0 0 0 0 0 0 0 0 0 0 0 0 0
0 0 0 0 0 0 -0 -0 0 0 -0 -0 -0 0 -0 -0 -0 -0 -0 -0 0 0 0 0 0 0 0 0 0 0 0 0 0 0 0 0 0 0 0 0 0 0 0 0
0 0 0 0 0 0 -0 -0 -0 -0 -0 -0 -0 -0 -0 -0 -0 -0 -0 -0 -0 0 0 0 0 0 0 0 0 0 0 0 0 0 0 0 0 0 0 0 0 0 0 0
0 0 0 -0 -0 -0 -0 -0 -0 -0 -0 -0 -0 -0 -0 -0 -0 -0 -0 -0 -0 -0 -0 0 0 0 0 0 0 0 0 0 0 0 0 0 0 0 0 0 0 0 0 0
0 0 -0 -0 -0 -0 -0 -0 -0 -0 -0 -0 -0 -0 -0 -0 -0 -0 -0 0 0 0 0 0 0 0 0 0 0 0 0 0 0 0 0 0 0 0 0 0 0 0 0 0
-0 -0 0 -0 -0 -0 -0 -0 -0 -0 0 0 0 -0 -0 -0 -0 -0 0 0 0 0 0 0 0 0 0 0 0 0 0 0 0 0 0 0 0 0 0 0 0 0 0 0
0 -0 -0 -0 -0 -0 -0 0 0 0 0 0 0 0 0 0 0 0 0 0 0 0 0 0 0 0 0 0 0 0 0 0 0 0 0 0 0 0 0 0 0 0 0 0
0 0 -0 0 0 0 0 0 0 0 0 0 0 0 0 0 0 0 0 0 0 0 0 0 0 0 0 0 0 0 0 0 0 0 0 0 0 0 0 0 0 0 0 0
0 0 0 0 0 0 0 0 0 0 0 0 0 0 0 0 0 0 0 0 0 0 0 0 0 0 0 0 0 0 0 0 0 0 0 0 0 0 0 0 0 0 0 0
0 0 0 0 0 0 0 0 0 0 0 0 0 0 0 0 0 0 0 -0 -0 0 0 0 0 0 0 0 0 0 0 0 0 0 0 0 0 0 0 0 0 0 0 0
0 0 0 0 0 0 0 0 0 0 0 0 0 0 0 0 0 0 -0 -0 0 0 0 0 0 0 0 0 0 0 0 0 0 0 0 0 0 0 0 0 0 0 0 0
0 0 0 0 0 0 0 0 0 0 0 0 0 0 0 0 0 0 0 0 0 0 0 0 0 0 0 0 0 0 0 0 0 0 0 0 0 0 0 0 0 0 0 0
0 0 0 0 0 0 0 0 0 0 0 0 0 0 0 0 0 0 -0 0 0 0 0 0 0 0 0 0 0 0 0 0 0 0 0 0 0 0 0 0 0 0 0 0
0 0 0 0 0 0 0 0 0 0 0 0 0 0 0 0 0 0 0 0 0 0 0 0 0 0 0 0 0 0 0 0 0 0 0 0 0 0 0 0 0 0 0 0
0 0 0 0 0 0 0 0 0 0 0 0 0 0 0 0 0 0 0 0 0 0 0 0 0 0 0 0 0 0 0 0 0 0 0 0 0 0 0 0 0 0 0 0
0 0 0 0 0 0 0 0 0 0 0 0 0 0 0 0 0 0 0 0 0 0 0 0 0 0 0 0 0 0 0 0 0 0 0 0 0 0 0 0 0 0 0 0
0 0 0 0 0 0 0 0 0 0 0 0 0 0 0 0 0 0 0 0 0 0 0 0 0 0 0 0 0 0 0 0 0 0 0 0 0 0 0 0 0 0 0 0
Wind_Speed_500mb
22 34 7 24 27 32 15 8 7 6 7 14 20 18 20 30 40 42 47 42 41 34 23 15 13 7 6 2 8 13 22 31 37 43 52 62 67 69 66 62 60 60 60 61
8 13 22 20 33 30 21 20 13 9 6 17 17 17 29 39 42 43 52 47 34 28 19 11 10 9 10 14 11 12 19 28 38 46 52 56 57 56 56 57 57 56 55 54
8 3 10 11 16 22 18 21 8 14 11 21 11 9 15 41 46 49 54 47 36 21 12 4 3 8 10 16 21 22 25 34 40 43 46 48 48 49 50 50 49 48 48 49
8 8 9 4 5 6 21 16 17 6 17 18 18 5 12 46 47 48 51 46 35 17 9 4 2 5 8 12 17 22 25 28 33 36 37 38 40 41 42 43 44 43 42 42
5 3 5 4 10 8 5 7 20 17 25 19 37 5 5 61 51 47 45 40 28 13 5 4 4 7 8 12 14 17 20 23 25 28 30 31 31 34 38 39 39 40 39 38
6 5 4 4 18 22 4 4 20 19 21 22 31 10 8 58 47 44 41 35 28 15 5 1 3 4 6 6 9 12 17 22 24 28 31 33 35 36 36 34 33 32 33 34
6 4 8 10 22 17 8 9 26 26 24 23 9 10 36 37 37 37 37 35 28 20 14 11 6 4 4 6 9 11 14 15 17 20 23 27 29 31 29 30 31 31 31 29
3 6 6 29 7 10 4 13 22 24 27 29 27 28 29 30 33 34 35 32 26 20 17 13 9 4 3 5 7 8 10 11 14 17 19 20 20 19 20 24 25 23 21 23
4 1 6 13 15 10 13 15 15 19 21 21 22 28 29 30 30 31 32 29 25 21 17 12 9 5 2 2 4 5 6 9 11 13 14 14 14 15 18 20 19 19 21 21
4 2 3 13 9 17 15 13 12 12 16 20 21 26 26 29 30 28 27 28 25 21 18 16 12 9 5 3 3 4 6 8 8 6 7 9 11 14 17 18 19 20 22 22
2 4 6 5 12 19 15 11 12 15 19 20 25 24 26 28 28 28 27 25 23 20 19 17 15 12 8 4 2 5 3 1 5 9 11 13 15 16 18 19 21 21 22 23
5 5 1 2 14 15 10 12 17 19 19 24 28 30 28 25 27 27 26 25 24 21 17 14 12 12 8 5 3 1 2 1 0 3 7 11 13 17 21 22 22 22 23 22
7 7 10 10 9 7 4 8 13 17 20 22 25 28 30 30 30 29 27 25 23 23 21 17 13 12 10 7 6 6 5 6 8 9 11 14 17 16 18 19 19 19 20 22
14 8 9 11 9 4 6 10 13 14 18 21 23 25 28 29 28 29 29 29 27 25 22 19 18 17 13 12 13 11 12 11 11 11 11 12 14 15 16 17 17 18 18 16
15 12 10 11 12 10 9 11 11 11 14 17 22 26 29 31 33 34 34 32 30 28 27 26 21 19 19 17 17 20 22 21 20 20 19 19 19 20 19 20 20 19 19 20
22 18 18 18 16 15 13 10 7 7 10 14 20 25 31 36 38 39 41 45 47 43 36 34 29 27 29 26 22 22 24 24 26 26 28 28 28 27 27 28 28 28 28 28
30 22 26 25 25 19 13 8 1 8 14 21 27 33 40 46 49 49 47 47 48 48 48 46 45 37 36 35 35 35 35 34 36 36 36 37 40 38 38 37 38 39 38 38
28 23 27 21 19 15 10 7 13 20 26 32 38 44 49 55 60 62 59 55 48 42 33 37 42 45 42 41 40 39 40 41 43 44 44 45 43 43 44 45 46 48 48 47
30 26 23 18 15 13 12 15 22 28 33 40 46 51 55 59 61 57 52 48 42 41 32 31 31 33 34 37 43 44 45 46 47 48 49 49 50 50 51 53 54 55 56 57
31 25 18 15 14 16 19 25 32 36 38 46 53 57 63 61 53 48 47 47 40 41 44 40 29 25 28 29 33 36 42 47 49 51 52 54 56 57 58 60 61 62 61 60
24 17 12 14 17 22 28 34 39 41 43 50 59 63 65 58 48 49 53 60 43 42 43 39 37 39 40 39 41 43 43 43 43 44 44 46 48 50 51 50 50 50 48 46
17 10 12 17 22 26 31 36 39 45 52 58 61 60 56 56 55 59 55 53 53 46 48 48 47 47 49 48 50 50 51 52 52 51 51 50 50 50 49 48 48 47 46 45
10 10 14 21 27 33 35 36 43 53 60 61 57 53 56 61 60 65 71 60 59 54 52 47 43 43 45 48 48 49 50 52 53 54 54 53 53 53 53 52 50 49 48 47
10 12 17 25 34 38 38 43 53 55 58 53 50 53 58 66 69 60 58 56 51 49 47 44 42 41 42 43 43 43 42 43 44 45 46 47 47 46 46 45 45 42 42 41
15 17 23 33 39 40 48 54 58 52 52 58 56 55 55 51 53 55 52 51 48 47 46 41 41 40 41 41 41 42 42 42 40 39 40 40 40 40 39 39 38 37 35 33
19 23 31 40 42 47 51 53 55 56 60 65 66 59 53 49 48 49 48 46 44 41 38 34 31 29 29 29 29 30 32 33 33 33 34 34 33 32 31 29 28 26 25 25
22 29 39 41 43 48 49 47 55 60 61 61 64 54 50 45 42 39 35 32 30 28 27 25 24 24 24 24 23 23 22 22 22 23 24 23 23 22 19 18 18 17 17 16
Wind_Direction_500mb
295 296 170 14 358 36 71 15 71 50 106 341 348 344 344 358 1 3 5 8 6 357 356 18 27 45 65 117 192 199 211 211 210 210 205 199 194 194 198 204 207 208 208 209
272 209 80 42 19 39 42 22 40 36 44 360 323 2 13 8 358 357 356 358 359 354 346 15 54 65 100 106 117 141 174 181 182 180 180 183 187 190 192 195 197 201 207 214
273 209 273 32 5 27 50 28 355 36 322 325 330 343 10 5 1 355 353 353 352 345 321 317 90 118 124 128 139 144 154 160 166 172 175 179 184 188 193 199 203 207 213 218
281 332 49 113 324 119 89 46 25 2 344 346 336 333 64 14 7 358 356 354 356 345 315 278 187 170 166 164 160 165 167 175 175 176 181 184 187 192 196 202 207 211 216 221
316 12 148 110 19 341 356 53 18 360 353 346 346 160 189 4 6 3 358 360 358 358 301 259 207 207 199 194 179 178 175 186 187 188 190 191 196 202 204 204 206 212 218 224
331 67 21 330 329 327 137 21 6 7 356 345 344 30 343 350 0 5 10 12 15 27 52 102 158 176 199 188 177 183 187 188 187 188 190 193 195 199 205 208 212 215 218 221
304 72 314 336 311 307 58 296 346 350 347 342 347 330 321 345 0 8 12 17 25 35 56 73 98 135 162 150 155 171 185 195 193 195 197 200 202 201 203 208 208 212 217 220
11 55 330 348 346 59 307 320 333 343 351 344 339 351 359 1 1 7 14 19 28 32 42 45 50 65 133 150 153 167 178 191 197 198 197 198 200 198 202 209 204 203 211 216
350 235 123 76 107 27 350 306 326 336 349 346 348 2 2 5 6 12 14 16 19 19 19 22 25 33 43 140 180 192 189 187 190 188 184 185 187 188 196 203 200 199 205 211
209 11 87 78 41 359 2 334 339 1 9 9 11 14 12 12 11 15 15 17 19 16 15 15 11 10 22 70 126 147 164 179 183 183 187 187 188 193 199 199 194 193 197 195
249 162 135 169 14 356 0 354 24 33 28 20 29 25 21 15 14 12 10 9 8 8 13 15 17 9 8 7 30 68 31 133 167 181 188 188 188 189 192 193 188 186 187 183
229 143 217 273 326 341 352 11 32 37 42 38 33 31 29 24 19 18 16 11 10 9 3 354 355 348 331 309 300 303 304 342 123 181 180 184 185 183 184 183 181 174 170 168
182 207 250 262 284 330 14 43 58 54 49 46 42 38 34 31 27 21 13 10 7 1 353 347 338 325 311 295 268 234 218 210 204 200 189 184 186 181 182 180 174 177 176 176
197 211 215 221 201 166 113 91 74 70 69 59 50 39 31 24 18 13 8 5 358 350 344 338 330 313 297 274 251 242 227 225 231 228 223 216 205 201 202 201 202 201 201 201
193 202 203 190 169 156 140 125 125 99 66 43 28 18 9 2 356 350 344 340 337 334 327 320 315 305 296 285 267 247 242 248 241 241 242 241 240 239 236 234 229 227 236 239
192 194 193 186 182 178 168 153 124 68 30 12 1 354 350 345 339 333 326 321 317 314 309 303 301 293 288 280 270 263 258 252 251 249 249 249 252 254 254 254 252 248 246 250
175 194 193 194 190 186 186 187 306 336 332 332 334 334 333 332 329 323 319 311 306 303 300 296 288 278 274 273 270 266 262 262 264 265 264 263 261 257 257 258 261 263 262 264
193 189 190 190 196 206 223 280 306 312 317 322 326 327 327 328 326 323 320 317 317 315 313 297 287 281 275 268 266 266 265 264 264 265 264 266 265 264 263 262 263 264 265 266
193 189 194 208 226 235 263 285 298 306 315 317 320 321 323 324 322 321 319 321 327 321 326 320 305 298 291 279 270 265 261 258 257 258 260 261 261 261 262 263 264 265 267 268
188 195 212 237 255 271 288 299 302 311 318 316 317 321 319 321 322 319 317 318 326 319 313 315 307 303 303 297 288 278 272 270 268 266 266 266 266 266 267 267 269 270 271 272
194 214 244 271 284 293 299 303 308 313 315 316 318 319 319 321 321 317 315 314 328 312 306 304 297 293 290 285 280 279 279 277 275 274 272 271 269 269 270 270 270 270 271 271
211 244 282 298 304 310 307 309 311 312 315 318 318 319 317 317 317 313 312 313 317 311 303 298 294 291 286 281 277 276 276 276 275 273 272 271 270 270 269 269 268 268 268 267
233 269 295 311 317 318 317 314 313 316 318 319 319 320 317 316 316 315 316 320 314 311 305 303 299 293 288 284 282 280 278 277 276 276 275 273 272 271 270 270 270 270 270 269
240 278 302 315 320 317 313 317 318 319 317 318 320 320 318 317 313 318 315 316 315 310 308 307 301 295 290 288 286 284 280 277 276 275 274 273 272 272 271 271 270 269 268 267
252 285 308 316 318 315 319 320 318 321 318 318 320 322 322 321 316 319 316 315 314 312 311 310 305 301 297 295 292 290 288 286 284 279 276 274 273 272 271 269 269 268 266 265
272 296 308 316 318 321 319 319 320 324 323 322 323 329 328 325 321 319 321 322 321 321 321 322 319 313 308 303 297 293 291 289 286 283 280 277 274 273 272 272 272 270 267 261
290 302 311 317 320 316 321 325 323 324 326 326 323 330 329 329 329 329 330 333 335 337 337 337 334 330 326 323 320 316 312 307 300 291 284 280 276 270 264 264 262 258 254 249
Wind_Speed_850mb
22 34 7 24 27 32 15 8 7 6 7 14 20 18 20 30 40 42 47 42 41 34 23 15 13 7 6 2 8 13 22 31 37 43 52 62 67 69 66 62 60 60 60 61
8 13 22 20 33 30 21 20 13 9 6 17 17 17 29 39 42 43 52 47 34 28 19 11 10 9 10 14 11 12 19 28 38 46 52 56 57 56 56 57 57 56 55 54
8 3 10 11 16 22 18 21 8 14 11 21 11 9 15 41 46 49 54 47 36 21 12 4 3 8 10 16 21 22 25 34 40 43 46 48 48 49 50 50 49 48 48 49
8 8 9 4 5 6 21 16 17 6 17 18 18 5 12 46 47 48 51 46 35 17 9 4 2 5 8 12 17 22 25 28 33 36 37 38 40 41 42 43 44 43 42 42
5 3 5 4 10 8 5 7 20 17 25 19 37 5 5 61 51 47 45 40 28 13 5 4 4 7 8 12 14 17 20 23 25 28 30 31 31 34 38 39 39 40 39 38
6 5 4 4 18 22 4 4 20 19 21 22 31 10 8 58 47 44 41 35 28 15 5 1 3 4 6 6 9 12 17 22 24 28 31 33 35 36 36 34 33 32 33 34
6 4 8 10 22 17 8 9 26 26 24 23 9 10 36 37 37 37 37 35 28 20 14 11 6 4 4 6 9 11 14 15 17 20 23 27 29 31 29 30 31 31 31 29
3 6 6 29 7 10 4 13 22 24 27 29 27 28 29 30 33 34 35 32 26 20 17 13 9 4 3 5 7 8 10 11 14 17 19 20 20 19 20 24 25 23 21 23
4 1 6 13 15 10 13 15 15 19 21 21 22 28 29 30 30 31 32 29 25 21 17 12 9 5 2 2 4 5 6 9 11 13 14 14 14 15 18 20 19 19 21 21
4 2 3 13 9 17 15 13 12 12 16 20 21 26 26 29 30 28 27 28 25 21 18 16 12 9 5 3 3 4 6 8 8 6 7 9 11 14 17 18 19 20 22 22
2 4 6 5 12 19 15 11 12 15 19 20 25 24 26 28 28 28 27 25 23 20 19 17 15 12 8 4 2 5 3 1 5 9 11 13 15 16 18 19 21 21 22 23
5 5 1 2 14 15 10 12 17 19 19 24 28 30 28 25 27 27 26 25 24 21 17 14 12 12 8 5 3 1 2 1 0 3 7 11 13 17 21 22 22 22 23 22
7 7 10 10 9 7 4 8 13 17 20 22 25 28 30 30 30 29 27 25 23 23 21 17 13 12 10 7 6 6 5 6 8 9 11 14 17 16 18 19 19 19 20 22
14 8 9 11 9 4 6 10 13 14 18 21 23 25 28 29 28 29 29 29 27 25 22 19 18 17 13 12 13 11 12 11 11 11 11 12 14 15 16 17 17 18 18 16
15 12 10 11 12 10 9 11 11 11 14 17 22 26 29 31 33 34 34 32 30 28 27 26 21 19 19 17 17 20 22 21 20 20 19 19 19 20 19 20 20 19 19 20
22 18 18 18 16 15 13 10 7 7 10 14 20 25 31 36 38 39 41 45 47 43 36 34 29 27 29 26 22 22 24 24 26 26 28 28 28 27 27 28 28 28 28 28
30 22 26 25 25 19 13 8 1 8 14 21 27 33 40 46 49 49 47 47 48 48 48 46 45 37 36 35 35 35 35 34 36 36 36 37 40 38 38 37 38 39 38 38
28 23 27 21 19 15 10 7 13 20 26 32 38 44 49 55 60 62 59 55 48 42 33 37 42 45 42 41 40 39 40 41 43 44 44 45 43 43 44 45 46 48 48 47
30 26 23 18 15 13 12 15 22 28 33 40 46 51 55 59 61 57 52 48 42 41 32 31 31 33 34 37 43 44 45 46 47 48 49 49 50 50 51 53 54 55 56 57
31 25 18 15 14 16 19 25 32 36 38 46 53 57 63 61 53 48 47 47 40 41 44 40 29 25 28 29 33 36 42 47 49 51 52 54 56 57 58 60 61 62 61 60
24 17 12 14 17 22 28 34 39 41 43 50 59 63 65 58 48 49 53 60 43 42 43 39 37 39 40 39 41 43 43 43 43 44 44 46 48 50 51 50 50 50 48 46
17 10 12 17 22 26 31 36 39 45 52 58 61 60 56 56 55 59 55 53 53 46 48 48 47 47 49 48 50 50 51 52 52 51 51 50 50 50 49 48 48 47 46 45
10 10 14 21 27 33 35 36 43 53 60 61 57 53 56 61 60 65 71 60 59 54 52 47 43 43 45 48 48 49 50 52 53 54 54 53 53 53 53 52 50 49 48 47
10 12 17 25 34 38 38 43 53 55 58 53 50 53 58 66 69 60 58 56 51 49 47 44 42 41 42 43 43 43 42 43 44 45 46 47 47 46 46 45 45 42 42 41
15 17 23 33 39 40 48 54 58 52 52 58 56 55 55 51 53 55 52 51 48 47 46 41 41 40 41 41 41 42 42 42 40 39 40 40 40 40 39 39 38 37 35 33
19 23 31 40 42 47 51 53 55 56 60 65 66 59 53 49 48 49 48 46 44 41 38 34 31 29 29 29 29 30 32 33 33 33 34 34 33 32 31 29 28 26 25 25
22 29 39 41 43 48 49 47 55 60 61 61 64 54 50 45 42 39 35 32 30 28 27 25 24 24 24 24 23 23 22 22 22 23 24 23 23 22 19 18 18 17 17 16
Wind_Direction_850mb
295 296 170 14 358 36 71 15 71 50 106 341 348 344 344 358 1 3 5 8 6 357 356 18 27 45 65 117 192 199 211 211 210 210 205 199 194 194 198 204 207 208 208 209
272 209 80 42 19 39 42 22 40 36 44 360 323 2 13 8 358 357 356 358 359 354 346 15 54 65 100 106 117 141 174 181 182 180 180 183 187 190 192 195 197 201 207 214
273 209 273 32 5 27 50 28 355 36 322 325 330 343 10 5 1 355 353 353 352 345 321 317 90 118 124 128 139 144 154 160 166 172 175 179 184 188 193 199 203 207 213 218
281 332 49 113 324 119 89 46 25 2 344 346 336 333 64 14 7 358 356 354 356 345 315 278 187 170 166 164 160 165 167 175 175 176 181 184 187 192 196 202 207 211 216 221
316 12 148 110 19 341 356 53 18 360 353 346 346 160 189 4 6 3 358 360 358 358 301 259 207 207 199 194 179 178 175 186 187 188 190 191 196 202 204 204 206 212 218 224
331 67 21 330 329 327 137 21 6 7 356 345 344 30 343 350 0 5 10 12 15 27 52 102 158 176 199 188 177 183 187 188 187 188 190 193 195 199 205 208 212 215 218 221
304 72 314 336 311 307 58 296 346 350 347 342 347 330 321 345 0 8 12 17 25 35 56 73 98 135 162 150 155 171 185 195 193 195 197 200 202 201 203 208 208 212 217 220
11 55 330 348 346 59 307 320 333 343 351 344 339 351 359 1 1 7 14 19 28 32 42 45 50 65 133 150 153 167 178 191 197 198 197 198 200 198 202 209 204 203 211 216
350 235 123 76 107 27 350 306 326 336 349 346 348 2 2 5 6 12 14 16 19 19 19 22 25 33 43 140 180 192 189 187 190 188 184 185 187 188 196 203 200 199 205 211
209 11 87 78 41 359 2 334 339 1 9 9 11 14 12 12 11 15 15 17 19 16 15 15 11 10 22 70 126 147 164 179 183 183 187 187 188 193 199 199 194 193 197 195
249 162 135 169 14 356 0 354 24 33 28 20 29 25 21 15 14 12 10 9 8 8 13 15 17 9 8 7 30 68 31 133 167 181 188 188 188 189 192 193 188 186 187 183
229 143 217 273 326 341 352 11 32 37 42 38 33 31 29 24 19 18 16 11 10 9 3 354 355 348 331 309 300 303 304 342 123 181 180 184 185 183 184 183 181 174 170 168
182 207 250 262 284 330 14 43 58 54 49 46 42 38 34 31 27 21 13 10 7 1 353 347 338 325 311 295 268 234 218 210 204 200 189 184 186 181 182 180 174 177 176 176
197 211 215 221 201 166 113 91 74 70 69 59 50 39 31 24 18 13 8 5 358 350 344 338 330 313 297 274 251 242 227 225 231 228 223 216 205 201 202 201 202 201 201 201
193 202 203 190 169 156 140 125 125 99 66 43 28 18 9 2 356 350 344 340 337 334 327 320 315 305 296 285 267 247 242 248 241 241 242 241 240 239 236 234 229 227 236 239
192 194 193 186 182 178 168 153 124 68 30 12 1 354 350 345 339 333 326 321 317 314 309 303 301 293 288 280 270 263 258 252 251 249 249 249 252 254 254 254 252 248 246 250
175 194 193 194 190 186 186 187 306 336 332 332 334 334 333 332 329 323 319 311 306 303 300 296 288 278 274 273 270 266 262 262 264 265 264 263 261 257 257 258 261 263 262 264
193 189 190 190 196 206 223 280 306 312 317 322 326 327 327 328 326 323 320 317 317 315 313 297 287 281 275 268 266 266 265 264 264 265 264 266 265 264 263 262 263 264 265 266
193 189 194 208 226 235 263 285 298 306 315 317 320 321 323 324 322 321 319 321 327 321 326 320 305 298 291 279 270 265 261 258 257 258 260 261 261 261 262 263 264 265 267 268
188 195 212 237 255 271 288 299 302 311 318 316 317 321 319 321 322 319 317 318 326 319 313 315 307 303 303 297 288 278 272 270 268 266 266 266 266 266 267 267 269 270 271 272
194 214 244 271 284 293 299 303 308 313 315 316 318 319 319 321 321 317 315 314 328 312 306 304 297 293 290 285 280 279 279 277 275 274 272 271 269 269 270 270 270 270 271 271
211 244 282 298 304 310 307 309 311 312 315 318 318 319 317 317 317 313 312 313 317 311 303 298 294 291 286 281 277 276 276 276 275 273 272 271 270 270 269 269 268 268 268 267
233 269 295 311 317 318 317 314 313 316 318 319 319 320 317 316 316 315 316 320 314 311 305 303 299 293 288 284 282 280 278 277 276 276 275 273 272 271 270 270 270 270 270 269
240 278 302 315 320 317 313 317 318 319 317 318 320 320 318 317 313 318 315 316 315 310 308 307 301 295 290 288 286 284 280 277 276 275 274 273 272 272 271 271 270 269 268 267
252 285 308 316 318 315 319 320 318 321 318 318 320 322 322 321 316 319 316 315 314 312 311 310 305 301 297 295 292 290 288 286 284 279 276 274 273 272 271 269 269 268 266 265
272 296 308 316 318 321 319 319 320 324 323 322 323 329 328 325 321 319 321 322 321 321 321 322 319 313 308 303 297 293 291 289 286 283 280 277 274 273 272 272 272 270 267 261
290 302 311 317 320 316 321 325 323 324 326 326 323 330 329 329 329 329 330 333 335 337 337 337 334 330 326 323 320 316 312 307 300 291 284 280 276 270 264 264 262 258 254 249